User: anonymous   Login
Location: Esp�n
(42.4593°N, 0.2047°W)
Time: 11:00:11
(UTC+00:00)
Language:

Cosmos 540 Rocket - Orbit

View from above orbital plane
View from above orbital plane
View from above satellite
View from above satellite

Ground track
Ground track

The orbit data is extracted from the following two-line orbital elements,

1  6324U 72104B   21162.82515592  .00000015  00000-0  12368-4 0  9998
2  6324  74.0776 288.0366 0008401  47.7162 312.4706 14.43531962545602
Epoch (UTC): 11 June 2021 19:48:13
Eccentricity: 0.0008401
inclination: 74.0776°
perigee height: 741 km
apogee height: 753 km
right ascension of ascending node: 288.0366°
argument of perigee: 47.7162°
revolutions per day: 14.43531962
mean anomaly at epoch: 312.4706°
orbit number at epoch: 54560

The dashed part of the orbit path shows where the satellite is in the earth's shadow,  

DLR